This is the latest recevied weather packets stored in our database for station/object HS3PIK-2. If no packets are shown the sender has not sent any weather packets the latest 10 day(s).
| Time | Temp. | Humidity | Pressure | Rain* | Wind** | Luminosity | Snow |
|---|---|---|---|---|---|---|---|
| 1777530095 | 37.22° C | 55% | - | - | - | 0 W/m² | - |
| 1777529765 | 37.78° C | 55% | - | - | - | 0 W/m² | - |
| 1777529437 | 37.22° C | 56% | - | - | - | 0 W/m² | - |
| 1777529107 | 37.78° C | 54% | - | - | - | 0 W/m² | - |
| 1777528780 | 37.78° C | 57% | - | - | - | 0 W/m² | - |
| 1777528447 | 37.78° C | 61% | - | - | - | 0 W/m² | - |
| 1777528122 | 36.67° C | 63% | - | - | - | 0 W/m² | - |
| 1777527797 | 37.22° C | 65% | - | - | - | 0 W/m² | - |
| 1777527474 | 37.78° C | 58% | - | - | - | 0 W/m² | - |
| 1777527149 | 37.78° C | 53% | - | - | - | 0 W/m² | - |
| 1777526822 | 37.78° C | 55% | - | - | - | 0 W/m² | - |
| 1777526494 | 37.78° C | 54% | - | - | - | 0 W/m² | - |
| 1777526171 | 37.22° C | 55% | - | - | - | 0 W/m² | - |
| 1777525834 | 37.22° C | 59% | - | - | - | 0 W/m² | - |
| 1777525499 | 36.11° C | 56% | - | - | - | 0 W/m² | - |
| 1777525174 | 36.11° C | 58% | - | - | - | 0 W/m² | - |
| 1777524847 | 35.56° C | 60% | - | - | - | 0 W/m² | - |
| 1777524516 | 35.56° C | 59% | - | - | - | 0 W/m² | - |
| 1777524191 | 35.56° C | 59% | - | - | - | 0 W/m² | - |
| 1777523867 | 36.11° C | 58% | - | - | - | 0 W/m² | - |
| 1777523537 | 36.11° C | 59% | - | - | - | 0 W/m² | - |
| 1777523209 | 35.56° C | 59% | - | - | - | 0 W/m² | - |
| 1777522879 | 35° C | 61% | - | - | - | 0 W/m² | - |
| 1777522552 | 35.56° C | 60% | - | - | - | 0 W/m² | - |
| 1777522222 | 35° C | 63% | - | - | - | 0 W/m² | - |
* Rain since midnight (hover to see other rain measurements)
** Current wind speed in m/s (hover to see current wind gust speed)